Wind_Speed
32 33 31 30 28 27 26 24 22 21 18 17 17 17 17 17 17 18 19 21 22 24 25 27 30 33 35 36 38 42 47 50 51 52 50 51 53 54 54 55 55 54 55
28 30 29 29 28 25 24 22 20 17 18 19 19 20 19 19 20 22 22 24 25 28 29 32 35 37 38 39 42 47 51 52 53 52 53 55 56 57 58 56 56 56 55
28 27 27 26 25 25 24 22 20 20 21 22 21 21 21 22 23 23 24 26 28 30 32 34 36 38 41 44 48 50 52 54 54 56 57 57 57 59 58 57 57 57 57
28 29 29 27 27 25 24 22 21 22 22 22 22 22 22 22 23 25 26 28 31 33 35 37 40 42 45 47 49 50 53 55 58 58 57 58 59 60 58 59 58 57 57
30 28 27 26 25 24 23 24 23 23 23 23 24 23 24 25 27 28 30 32 34 36 39 41 43 45 49 51 53 55 58 59 59 59 58 59 62 61 60 59 59 58 56
30 29 27 25 25 25 25 26 26 25 26 26 27 26 27 29 30 33 35 37 38 38 40 44 48 51 54 57 60 62 61 59 57 59 62 62 63 62 60 59 58 57 57
33 30 28 28 28 28 28 28 28 28 28 29 29 30 32 34 35 36 37 39 41 42 45 48 53 57 60 60 59 59 59 61 60 64 63 64 62 61 60 60 59 58 57
37 35 33 32 32 31 31 30 30 31 31 31 33 35 36 37 38 40 42 43 44 46 51 54 58 61 63 61 60 60 60 62 64 65 66 65 64 64 63 62 60 59 60
41 40 38 37 36 34 33 34 34 35 35 36 36 37 39 42 43 45 46 47 49 52 56 59 62 64 62 60 60 60 62 64 65 67 69 67 66 61 60 58 57 59 61
46 44 42 40 39 38 37 38 38 39 41 42 44 44 45 47 48 50 50 53 56 57 62 64 66 64 63 62 62 61 63 67 69 69 67 64 64 64 63 61 59 62 60
49 47 46 44 43 42 42 42 43 45 47 48 49 51 52 52 53 55 57 58 60 63 67 68 68 65 62 61 62 64 68 71 71 69 68 67 66 65 63 62 64 62 62
54 51 51 49 47 46 46 45 47 49 50 51 51 52 53 56 58 59 62 64 66 68 70 70 67 64 62 64 66 69 71 71 71 70 70 68 67 65 65 65 65 60 58
60 56 55 53 52 52 50 50 51 52 53 53 54 55 59 61 62 64 67 69 72 72 71 70 66 63 66 69 70 70 69 70 72 72 70 69 71 68 67 67 66 61 58
63 62 59 58 57 56 56 55 56 56 57 58 59 61 63 65 66 69 71 72 74 74 71 67 66 68 70 71 69 72 71 72 74 74 74 71 70 70 68 69 65 62 59
65 64 62 62 60 59 60 60 61 62 62 63 65 66 66 68 70 72 74 75 74 73 72 71 70 71 73 73 74 76 75 76 77 77 77 72 72 70 70 67 65 63 62
70 69 66 65 63 63 64 65 66 66 67 68 67 68 70 71 72 72 72 73 74 71 72 72 73 74 76 78 80 79 79 79 80 81 79 76 72 70 71 64 66 66 63
73 71 70 68 68 68 69 70 70 70 70 71 70 72 74 73 72 69 71 74 72 72 74 76 78 80 82 85 85 84 86 84 82 81 76 76 73 69 68 63 68 64 63
73 73 73 70 70 71 73 72 73 72 73 74 72 72 71 70 71 73 73 73 74 77 78 78 81 84 87 87 88 90 89 88 83 77 77 76 73 69 72 72 66 65 64
73 73 73 73 73 73 72 73 75 74 73 74 72 70 72 74 74 75 77 77 78 79 79 82 83 87 89 93 95 94 90 88 83 77 75 75 75 74 72 70 67 67 66
78 77 77 76 76 75 73 72 73 72 70 70 72 72 74 78 80 79 82 80 80 80 83 86 91 94 97 99 99 96 92 89 84 78 72 75 76 75 72 70 70 70 70
79 78 76 73 72 71 74 73 73 73 73 75 77 79 77 77 78 81 81 81 81 84 87 94 97 98 98 101 99 100 92 87 82 78 76 74 74 74 74 74 72 70 70
80 77 75 74 74 73 73 74 74 76 78 80 81 83 81 78 78 79 81 83 87 91 94 96 97 100 104 105 103 95 87 83 82 81 79 78 78 77 78 79 78 76 74
79 76 75 73 74 75 77 78 79 78 78 80 85 86 89 88 85 83 86 90 93 98 99 101 103 107 106 106 98 97 94 87 85 86 87 87 86 83 82 82 81 80 78
82 80 80 80 80 81 81 81 82 83 84 84 84 87 89 91 93 93 94 96 99 103 106 107 109 109 107 99 97 97 99 99 99 98 97 95 95 92 90 87 87 84 83
86 86 85 85 84 85 85 84 85 87 88 89 90 89 91 95 98 101 104 106 106 108 111 111 111 107 99 97 98 101 105 107 110 111 110 106 102 97 93 92 90 87 84
89 88 87 87 87 88 89 89 91 91 92 94 96 96 96 97 102 104 108 111 113 114 114 111 104 99 100 102 102 107 114 117 115 109 106 103 100 96 94 89 88 83 83
Wind_Direction
217 220 225 229 231 235 238 239 241 245 251 259 261 266 270 275 278 280 280 278 281 283 283 287 290 295 296 297 296 301 307 310 313 314 314 314 313 313 312 312 309 307 305
217 220 223 226 228 229 232 235 242 245 251 258 259 262 269 273 275 280 283 284 285 286 287 291 295 296 299 301 303 304 307 309 311 312 311 312 312 312 311 309 307 306 304
223 221 222 223 224 228 234 239 241 245 251 256 259 265 271 275 278 283 285 287 290 293 295 297 301 304 304 304 304 305 307 307 307 307 308 309 309 310 308 307 306 303 301
230 227 226 227 229 231 234 239 243 246 250 256 261 264 270 277 284 288 291 294 295 297 299 303 304 303 302 302 304 305 306 305 303 304 306 307 308 308 306 306 304 302 300
230 231 232 232 233 233 237 241 244 249 254 257 263 270 275 280 284 288 291 294 296 297 299 301 303 303 303 303 303 303 302 303 304 304 305 307 308 307 306 306 306 303 302
232 233 234 236 240 242 242 244 247 247 252 259 266 272 276 279 283 287 290 291 293 295 297 301 305 305 304 303 301 302 304 305 306 306 305 306 306 306 306 307 306 304 303
234 233 236 238 240 244 245 243 249 255 258 264 271 274 277 280 283 284 286 289 293 296 298 299 301 303 305 304 301 302 305 305 304 305 305 306 304 305 305 305 305 306 305
233 235 237 239 241 244 247 252 256 258 262 268 273 276 278 280 282 285 288 291 294 294 295 297 300 303 303 303 302 303 303 303 303 305 305 305 305 305 305 305 304 305 305
235 235 238 239 242 246 253 258 260 262 263 265 267 271 277 281 283 284 286 289 291 294 298 300 301 304 304 302 302 303 303 303 303 303 303 305 305 305 307 306 306 305 305
241 240 242 243 245 249 253 257 261 262 264 267 270 273 277 280 283 284 287 288 291 297 300 301 303 305 304 302 301 302 302 302 302 303 304 306 306 305 306 304 305 307 307
240 242 245 246 249 252 255 258 260 262 265 268 270 275 277 279 283 286 289 292 294 299 303 304 305 303 302 299 298 300 302 303 303 303 305 304 305 306 306 304 308 306 307
241 240 244 246 248 252 256 259 261 263 266 269 273 277 280 282 283 287 290 294 297 299 303 304 302 299 299 299 301 303 304 304 302 303 305 303 303 305 305 306 307 305 306
241 243 245 247 250 253 256 261 263 265 269 273 276 278 281 282 285 288 293 296 297 299 300 300 297 296 298 300 301 304 306 305 305 305 304 303 303 303 305 307 310 309 306
241 244 246 248 250 254 257 259 264 266 270 273 276 278 281 284 287 290 293 295 297 298 297 294 295 297 299 301 303 306 305 306 305 303 302 301 303 302 302 306 308 309 305
240 244 247 251 254 256 259 262 265 268 271 274 277 279 282 286 288 291 293 294 294 293 293 294 297 298 300 302 305 304 304 305 304 304 304 300 300 299 300 304 308 305 303
242 244 247 251 254 257 260 263 266 270 273 276 279 281 283 285 288 290 289 290 291 291 295 297 297 298 299 301 303 303 304 306 305 303 301 300 299 299 299 300 307 302 298
243 245 249 253 256 259 261 264 267 271 275 277 279 280 283 285 286 287 288 290 292 295 295 295 296 297 299 300 303 304 305 304 305 303 298 298 298 297 298 296 301 299 296
244 248 251 253 256 258 260 264 267 270 273 276 279 281 282 280 283 284 288 292 293 294 295 295 296 298 301 301 303 304 304 305 304 300 298 298 297 294 298 297 298 298 296
247 249 252 254 255 257 261 264 267 269 273 275 276 275 276 280 283 287 291 292 292 293 294 296 296 298 297 300 303 304 303 304 303 299 297 296 296 294 296 297 297 296 295
246 248 252 256 259 260 261 264 267 269 269 269 272 275 281 285 290 291 291 291 292 293 292 294 296 298 300 302 302 303 303 302 300 296 294 294 295 295 294 294 293 293 295
248 250 252 256 258 260 263 265 266 268 269 275 279 281 284 287 290 291 293 292 291 291 292 294 296 299 300 301 302 302 302 299 298 295 293 293 292 292 292 291 292 292 292
249 251 253 254 256 259 260 264 268 274 276 278 280 281 285 285 287 288 289 289 288 291 294 295 296 298 300 302 302 300 298 297 294 294 294 292 291 290 289 290 290 290 290
249 251 253 255 257 260 264 268 271 272 276 280 283 286 286 286 285 285 285 287 289 292 294 295 297 299 301 301 299 297 295 294 293 292 292 290 289 287 285 285 285 286 286
250 251 254 257 260 263 266 270 272 274 275 278 281 285 286 287 286 287 285 289 291 293 295 296 298 299 300 297 296 296 297 297 295 294 291 289 287 285 283 282 281 281 282
251 253 255 258 261 263 267 269 271 273 275 277 277 279 282 284 286 288 290 291 292 294 296 298 300 300 296 295 296 296 296 295 294 293 290 288 286 283 280 280 279 278 277
251 254 257 259 261 264 266 269 271 274 276 278 280 281 282 283 286 290 292 294 296 297 298 298 297 295 294 295 296 295 294 293 290 289 288 286 284 281 279 278 276 277 276
Height
10923 10926 10928 10931 10934 10938 10941 10943 10945 10946 10947 10947 10948 10949 10949 10950 10950 10950 10951 10950 10950 10949 10950 10949 10948 10947 10946 10945 10943 10941 10938 10936 10933 10930 10928 10924 10920 10917 10914 10911 10907 10903 10900
10919 10922 10925 10928 10932 10935 10938 10940 10941 10942 10943 10944 10944 10945 10947 10947 10947 10947 10947 10947 10947 10946 10946 10946 10945 10944 10943 10941 10939 10936 10933 10930 10927 10923 10921 10918 10914 10910 10906 10903 10899 10895 10891
10916 10919 10922 10926 10929 10931 10934 10936 10937 10938 10939 10941 10942 10943 10943 10944 10944 10944 10944 10944 10944 10943 10943 10942 10941 10940 10938 10936 10934 10931 10927 10923 10921 10918 10915 10911 10908 10903 10899 10895 10891 10887 10882
10913 10916 10919 10922 10925 10928 10930 10931 10933 10935 10936 10937 10939 10939 10940 10940 10940 10940 10940 10940 10940 10939 10938 10937 10936 10935 10933 10930 10928 10925 10921 10917 10913 10911 10908 10903 10900 10895 10890 10886 10882 10878 10874
10908 10912 10915 10918 10921 10924 10926 10928 10930 10931 10933 10934 10935 10935 10936 10937 10937 10937 10936 10935 10935 10934 10934 10932 10931 10929 10927 10924 10921 10918 10914 10910 10906 10901 10899 10895 10891 10887 10882 10878 10873 10869 10865
10904 10908 10911 10914 10917 10919 10922 10924 10925 10928 10929 10930 10931 10932 10932 10933 10932 10932 10931 10930 10930 10929 10928 10926 10924 10922 10920 10917 10913 10910 10906 10903 10900 10895 10891 10888 10883 10878 10874 10870 10865 10861 10857
10899 10903 10907 10910 10912 10914 10917 10920 10921 10922 10923 10925 10926 10927 10927 10927 10927 10926 10926 10925 10924 10923 10921 10919 10917 10914 10911 10908 10905 10901 10898 10894 10892 10887 10883 10879 10874 10870 10865 10862 10857 10852 10847
10894 10898 10902 10904 10907 10909 10912 10914 10916 10917 10919 10920 10921 10921 10921 10921 10920 10920 10919 10919 10918 10916 10914 10912 10909 10906 10903 10900 10896 10893 10890 10886 10882 10877 10873 10870 10865 10861 10855 10851 10847 10842 10838
10888 10893 10895 10898 10902 10905 10907 10908 10911 10912 10914 10915 10915 10915 10915 10914 10913 10913 10913 10912 10911 10908 10906 10904 10901 10898 10895 10891 10888 10884 10880 10876 10872 10868 10862 10859 10856 10850 10845 10841 10838 10832 10827
10881 10885 10889 10892 10896 10899 10901 10903 10905 10907 10907 10907 10908 10908 10908 10907 10907 10906 10905 10903 10902 10900 10898 10895 10892 10889 10885 10882 10879 10875 10870 10866 10861 10856 10852 10848 10845 10841 10835 10831 10826 10822 10817
10873 10879 10882 10886 10889 10892 10895 10897 10899 10899 10899 10900 10900 10900 10900 10899 10898 10897 10895 10895 10893 10891 10888 10885 10881 10879 10876 10873 10869 10865 10861 10856 10850 10848 10842 10837 10833 10830 10826 10821 10817 10812 10806
10865 10870 10874 10878 10881 10884 10887 10890 10890 10891 10891 10891 10892 10892 10891 10890 10888 10887 10886 10885 10883 10882 10878 10875 10871 10868 10865 10862 10859 10856 10851 10846 10839 10838 10833 10827 10823 10818 10815 10811 10806 10801 10797
10856 10862 10866 10870 10873 10875 10879 10881 10881 10882 10883 10883 10884 10884 10882 10880 10878 10878 10876 10874 10872 10871 10868 10864 10861 10858 10855 10852 10849 10846 10842 10836 10827 10825 10823 10817 10812 10808 10804 10799 10795 10790 10787
10848 10853 10858 10861 10865 10867 10870 10872 10873 10874 10874 10875 10875 10874 10873 10869 10868 10868 10866 10862 10860 10858 10856 10854 10850 10847 10844 10840 10837 10832 10828 10822 10816 10811 10809 10805 10800 10795 10792 10788 10783 10778 10774
10841 10845 10851 10853 10856 10860 10861 10863 10864 10865 10864 10864 10864 10863 10863 10861 10858 10855 10853 10852 10848 10847 10843 10841 10839 10835 10831 10827 10822 10818 10815 10811 10803 10797 10794 10791 10786 10781 10778 10775 10771 10767 10763
10833 10837 10842 10844 10848 10850 10851 10852 10853 10853 10854 10854 10854 10854 10853 10851 10849 10847 10842 10838 10836 10835 10832 10828 10824 10821 10818 10815 10811 10807 10802 10798 10790 10784 10777 10775 10771 10767 10764 10762 10759 10755 10751
10821 10828 10831 10835 10838 10840 10840 10841 10844 10844 10843 10844 10844 10842 10841 10840 10839 10835 10831 10825 10823 10820 10819 10814 10811 10807 10803 10800 10795 10791 10786 10783 10778 10769 10763 10758 10757 10754 10751 10749 10747 10744 10740
10812 10817 10820 10826 10828 10828 10829 10831 10833 10835 10833 10832 10833 10831 10830 10829 10826 10825 10822 10816 10812 10809 10804 10799 10795 10791 10786 10781 10779 10776 10770 10764 10763 10755 10748 10744 10741 10739 10738 10735 10733 10729 10726
10804 10805 10807 10811 10814 10816 10819 10821 10821 10823 10821 10821 10820 10819 10817 10815 10814 10813 10809 10805 10799 10795 10790 10787 10782 10776 10771 10766 10763 10759 10753 10747 10744 10743 10734 10729 10724 10722 10723 10719 10718 10714 10712
10789 10791 10795 10798 10799 10806 10808 10807 10808 10811 10810 10809 10807 10807 10804 10800 10797 10796 10793 10790 10787 10781 10776 10771 10766 10760 10754 10749 10746 10741 10736 10730 10726 10722 10722 10714 10709 10705 10705 10704 10701 10700 10696
10775 10779 10784 10789 10788 10788 10791 10797 10797 10796 10796 10793 10793 10793 10792 10790 10786 10781 10776 10771 10769 10767 10762 10756 10750 10744 10737 10730 10726 10721 10718 10712 10707 10701 10701 10702 10694 10689 10687 10684 10684 10684 10681
10762 10767 10771 10775 10777 10780 10781 10782 10784 10782 10780 10779 10778 10776 10778 10780 10777 10772 10766 10760 10753 10751 10748 10742 10733 10726 10718 10710 10703 10702 10700 10694 10686 10682 10681 10678 10678 10676 10669 10666 10665 10665 10664
10749 10755 10759 10761 10764 10766 10767 10768 10769 10772 10771 10764 10760 10758 10755 10757 10759 10758 10754 10747 10741 10735 10730 10724 10717 10710 10700 10691 10681 10675 10674 10675 10670 10663 10659 10655 10653 10655 10655 10650 10648 10646 10646
10737 10742 10744 10747 10749 10751 10752 10753 10753 10754 10755 10757 10753 10744 10737 10734 10733 10734 10735 10733 10725 10717 10711 10705 10699 10690 10683 10671 10660 10652 10645 10644 10644 10641 10636 10634 10631 10630 10629 10631 10629 10629 10628
10720 10725 10729 10731 10734 10735 10738 10739 10738 10737 10738 10737 10739 10738 10729 10720 10716 10711 10709 10707 10705 10699 10691 10681 10673 10667 10661 10654 10642 10632 10625 10617 10613 10611 10610 10606 10601 10604 10605 10605 10605 10608 10606
10706 10710 10714 10716 10718 10720 10722 10722 10723 10723 10722 10719 10716 10716 10716 10711 10704 10696 10689 10681 10676 10672 10667 10660 10651 10643 10636 10629 10626 10614 10603 10594 10585 10579 10578 10577 10575 10576 10577 10581 10581 10585 10586